sat.trackr.live / text

‹ back to catalog

STARLINK-35017

NORAD 65292 · 2025-184V

PAYLOAD ACTIVE UNKNOWN

§ Identity

Operator
Country
US
Launch date
2025-08-22
Launch site
AFWTR
Launch vehicle
Mass (kg)
RCS (m²)

Purposes: comms

External: N2YO · Heavens-Above · Gunter

§ Orbital elements

Epoch: 2026-05-25T02:40:07.598784Z

Period
95.64 min
Inclination
97.4503°
Eccentricity
0.0002539
Mean motion
15.05659221 rev/d
Perigee alt
547.7 km
Apogee alt
551.2 km
Semi-major
6,927.6 km
B*
2.1398e-4
RAAN
197.6779°
Arg perigee
100.8964°
Mean anomaly
259.2548°
Rev number
4,275

§ Raw data

STARLINK-350171 65292U 25184V   26145.11119906  .00003031  00000+0  21398-3 0  99922 65292  97.4503 197.6779 0002539 100.8964 259.2548 15.05659221 42756

JSON: /api/v1/satellites/65292 · /tle

For live sub-satellite position, see the globe view (requires WebGL).

§ Visibility from observer

Set your observer location to see the next 7 days of passes ≥ 10°. The values pass through the URL so the page stays shareable.

No JS? Fill the form by hand. The geolocation button needs JavaScript.